Time,TemperatureF,DewpointF,PressureIn,WindDirection,WindDirectionDegrees,WindSpeedMPH,WindSpeedGustMPH,Humidity,HourlyPrecipIn,Conditions,Clouds,dailyrainin,SoftwareType,DateUTC
2013-06-28 00:07:00,74.8,60.0,29.69,ENE,64,0.0,-999.0,61,-99.99,,,0.00,weatherlink.com 1.10,2013-06-28 05:07:00,
2013-06-28 00:22:00,74.6,61.0,29.70,SSW,205,0.0,-999.0,62,-99.99,,,0.00,weatherlink.com 1.10,2013-06-28 05:22:00,
2013-06-28 00:37:00,74.0,61.0,29.70,South,187,0.0,-999.0,63,-99.99,,,0.00,weatherlink.com 1.10,2013-06-28 05:37:00,
2013-06-28 00:52:00,73.4,61.0,29.70,South,187,0.0,-999.0,65,-99.99,,,0.00,weatherlink.com 1.10,2013-06-28 05:52:00,
2013-06-28 01:07:00,72.7,61.0,29.70,South,187,0.0,-999.0,67,-99.99,,,0.00,weatherlink.com 1.10,2013-06-28 06:07:00,
2013-06-28 01:22:00,71.8,61.0,29.69,South,187,0.0,-999.0,69,-99.99,,,0.00,weatherlink.com 1.10,2013-06-28 06:22:00,
2013-06-28 01:37:00,71.0,62.0,29.69,South,189,0.0,-999.0,72,-99.99,,,0.00,weatherlink.com 1.10,2013-06-28 06:37:00,
2013-06-28 01:52:00,70.6,62.0,29.68,South,189,0.0,-999.0,73,-99.99,,,0.00,weatherlink.com 1.10,2013-06-28 06:52:00,
2013-06-28 02:09:00,70.2,62.0,29.68,South,189,0.0,-999.0,75,-99.99,,,0.00,weatherlink.com 1.10,2013-06-28 07:09:00,
2013-06-28 02:22:00,69.5,62.0,29.68,South,189,0.0,-999.0,77,-99.99,,,0.00,weatherlink.com 1.10,2013-06-28 07:22:00,
2013-06-28 02:37:00,69.5,62.0,29.68,South,189,0.0,-999.0,78,-99.99,,,0.00,weatherlink.com 1.10,2013-06-28 07:37:00,
2013-06-28 02:52:00,69.6,62.0,29.67,South,189,0.0,-999.0,78,-99.99,,,0.00,weatherlink.com 1.10,2013-06-28 07:52:00,
2013-06-28 03:07:00,69.4,63.0,29.68,South,187,1.0,-999.0,79,-99.99,,,0.00,weatherlink.com 1.10,2013-06-28 08:07:00,
2013-06-28 03:22:00,69.7,62.0,29.67,SSE,166,0.0,-999.0,76,-99.99,,,0.00,weatherlink.com 1.10,2013-06-28 08:22:00,
2013-06-28 03:37:00,70.0,61.0,29.66,ESE,112,0.0,-999.0,74,-99.99,,,0.00,weatherlink.com 1.10,2013-06-28 08:37:00,
2013-06-28 03:52:00,70.2,61.0,29.67,East,99,0.0,-999.0,73,-99.99,,,0.00,weatherlink.com 1.10,2013-06-28 08:52:00,
2013-06-28 04:07:00,70.3,61.0,29.65,SE,128,0.0,-999.0,72,-99.99,,,0.00,weatherlink.com 1.10,2013-06-28 09:07:00,
2013-06-28 04:22:00,70.5,61.0,29.65,NNW,330,0.0,-999.0,72,-99.99,,,0.00,weatherlink.com 1.10,2013-06-28 09:22:00,
2013-06-28 04:37:00,70.4,60.0,29.66,SE,141,0.0,-999.0,70,-99.99,,,0.00,weatherlink.com 1.10,2013-06-28 09:37:00,
2013-06-28 04:52:00,70.2,60.0,29.66,ESE,122,0.0,-999.0,71,-99.99,,,0.00,weatherlink.com 1.10,2013-06-28 09:52:00,
2013-06-28 05:07:00,70.1,60.0,29.67,NW,317,0.0,-999.0,71,-99.99,,,0.00,weatherlink.com 1.10,2013-06-28 10:07:00,
2013-06-28 07:58:00,69.8,60.0,29.66,NNW,332,0.0,-999.0,71,-99.99,,,0.00,weatherlink.com 1.10,2013-06-28 12:58:00,
2013-06-28 08:21:00,70.7,60.0,29.66,NNW,347,0.0,-999.0,69,-99.99,,,0.00,weatherlink.com 1.10,2013-06-28 13:21:00,
2013-06-28 08:38:00,71.1,61.0,29.65,ENE,68,0.0,-999.0,70,-99.99,,,0.00,weatherlink.com 1.10,2013-06-28 13:38:00,
2013-06-28 08:53:00,71.5,60.0,29.65,SE,125,1.0,-999.0,68,-99.99,,,0.00,weatherlink.com 1.10,2013-06-28 13:53:00,
2013-06-28 09:08:00,72.4,60.0,29.65,West,276,0.0,-999.0,66,-99.99,,,0.00,weatherlink.com 1.10,2013-06-28 14:08:00,
2013-06-28 09:23:00,73.1,61.0,29.65,NE,45,0.0,-999.0,65,-99.99,,,0.00,weatherlink.com 1.10,2013-06-28 14:23:00,
2013-06-28 09:38:00,73.8,60.0,29.64,South,170,0.0,-999.0,63,-99.99,,,0.00,weatherlink.com 1.10,2013-06-28 14:38:00,
2013-06-28 09:53:00,74.5,61.0,29.64,ENE,62,0.0,-999.0,62,-99.99,,,0.00,weatherlink.com 1.10,2013-06-28 14:53:00,
2013-06-28 10:08:00,75.1,60.0,29.63,ESE,112,1.0,-999.0,60,-99.99,,,0.00,weatherlink.com 1.10,2013-06-28 15:08:00,
2013-06-28 10:23:00,75.7,60.0,29.63,SE,142,0.0,-999.0,59,-99.99,,,0.00,weatherlink.com 1.10,2013-06-28 15:23:00,
2013-06-28 10:39:00,76.9,60.0,29.63,South,180,2.0,-999.0,57,-99.99,,,0.00,weatherlink.com 1.10,2013-06-28 15:39:00,
2013-06-28 10:54:00,78.0,61.0,29.63,SE,137,1.0,-999.0,57,-99.99,,,0.00,weatherlink.com 1.10,2013-06-28 15:54:00,
2013-06-28 11:09:00,79.4,62.0,29.63,NNE,17,1.0,-999.0,56,-99.99,,,0.00,weatherlink.com 1.10,2013-06-28 16:09:00,
2013-06-28 11:24:00,78.6,61.0,29.63,SE,133,2.0,-999.0,55,-99.99,,,0.00,weatherlink.com 1.10,2013-06-28 16:24:00,
2013-06-28 18:03:00,72.4,65.0,29.61,SE,128,0.0,-999.0,77,-99.99,,,0.00,weatherlink.com 1.10,2013-06-28 23:03:00,
2013-06-28 18:21:00,72.3,65.0,29.61,SSE,152,1.0,-999.0,78,-99.99,,,0.00,weatherlink.com 1.10,2013-06-28 23:21:00,
2013-06-28 18:36:00,72.0,64.0,29.61,ESE,114,0.0,-999.0,77,-99.99,,,0.00,weatherlink.com 1.10,2013-06-28 23:36:00,
2013-06-28 18:51:00,71.7,64.0,29.60,South,180,0.0,-999.0,77,-99.99,,,0.00,weatherlink.com 1.10,2013-06-28 23:51:00,
2013-06-28 19:06:00,71.8,65.0,29.61,East,95,0.0,-999.0,78,-99.99,,,0.00,weatherlink.com 1.10,2013-06-29 00:06:00,
2013-06-28 19:21:00,71.6,64.0,29.61,SSE,156,0.0,-999.0,78,-99.99,,,0.00,weatherlink.com 1.10,2013-06-29 00:21:00,
2013-06-28 19:36:00,71.3,65.0,29.61,South,170,0.0,-999.0,79,-99.99,,,0.00,weatherlink.com 1.10,2013-06-29 00:36:00,
2013-06-28 19:51:00,71.0,65.0,29.62,South,174,0.0,-999.0,80,-99.99,,,0.00,weatherlink.com 1.10,2013-06-29 00:51:00,
2013-06-28 20:06:00,70.7,65.0,29.62,NW,318,1.0,-999.0,81,-99.99,,,0.00,weatherlink.com 1.10,2013-06-29 01:06:00,
2013-06-28 20:21:00,70.4,65.0,29.62,SW,216,0.0,-999.0,84,-99.99,,,0.00,weatherlink.com 1.10,2013-06-29 01:21:00,
2013-06-28 20:36:00,70.0,65.0,29.61,West,278,0.0,-999.0,85,-99.99,,,0.00,weatherlink.com 1.10,2013-06-29 01:36:00,
2013-06-28 20:51:00,69.6,65.0,29.61,SSW,195,0.0,-999.0,84,-99.99,,,0.00,weatherlink.com 1.10,2013-06-29 01:51:00,
2013-06-28 21:06:00,69.2,64.0,29.61,SSW,195,0.0,-999.0,84,-99.99,,,0.00,weatherlink.com 1.10,2013-06-29 02:06:00,
2013-06-28 21:21:00,69.1,65.0,29.62,SSW,195,0.0,-999.0,85,-99.99,,,0.00,weatherlink.com 1.10,2013-06-29 02:21:00,
2013-06-28 21:36:00,68.8,65.0,29.63,SSW,195,0.0,-999.0,86,-99.99,,,0.00,weatherlink.com 1.10,2013-06-29 02:36:00,
2013-06-28 21:51:00,68.6,65.0,29.64,SSW,195,0.0,-999.0,87,-99.99,,,0.00,weatherlink.com 1.10,2013-06-29 02:51:00,
2013-06-28 22:06:00,68.5,65.0,29.63,South,173,0.0,-999.0,87,-99.99,,,0.00,weatherlink.com 1.10,2013-06-29 03:06:00,
2013-06-28 22:21:00,68.5,65.0,29.63,South,173,0.0,-999.0,87,-99.99,,,0.00,weatherlink.com 1.10,2013-06-29 03:21:00,
2013-06-28 22:36:00,68.5,64.0,29.63,South,173,0.0,-999.0,86,-99.99,,,0.00,weatherlink.com 1.10,2013-06-29 03:36:00,
2013-06-28 22:51:00,68.4,64.0,29.62,South,173,0.0,-999.0,86,-99.99,,,0.00,weatherlink.com 1.10,2013-06-29 03:51:00,
2013-06-28 23:06:00,68.0,64.0,29.62,South,174,0.0,-999.0,86,-99.99,,,0.00,weatherlink.com 1.10,2013-06-29 04:06:00,
2013-06-28 23:21:00,67.6,64.0,29.62,South,174,0.0,-999.0,87,-99.99,,,0.00,weatherlink.com 1.10,2013-06-29 04:21:00,
2013-06-28 23:36:00,67.4,64.0,29.62,South,174,0.0,-999.0,87,-99.99,,,0.00,weatherlink.com 1.10,2013-06-29 04:36:00,
2013-06-28 23:51:00,67.1,64.0,29.62,South,174,0.0,-999.0,88,-99.99,,,0.00,weatherlink.com 1.10,2013-06-29 04:51:00,